Regional Weather Roundup
Issued by NWS

Home | Current Version | Previous Version | Graphics & Text | Print | Product List | Glossary On
Versions: 1 2 3 4 5 6 7 8 9 10 11 12 13 14 15 16 17 18 19 20 21 22 23 24 25 26 27 28 29 30 31 32 33 34 35 36 37 38 39 40 41 42 43 44 45 46 47 48 49 50
688
ASUS45 KTFX 292210
RWRMT
MONTANA REGIONAL WEATHER ROUNDUP
NATIONAL WEATHER SERVICE GREAT FALLS MT
400 PM MDT SUN MAY 29 2016

NOTE: "FAIR" INDICATES FEW OR NO CLOUDS BELOW 12000 FEET WITH NO
SIGNIFICANT WEATHER AND/OR OBSTRUCTIONS TO VISIBILITY.

MTZ001>007-043-292300-
WEST OF THE DIVIDE

CITY           SKY/WX    TMP DP  RH WIND       PRES   REMARKS
KALISPELL      LGT RAIN  59  52  77 S8        29.97R
MISSOULA       PTSUNNY   66  41  40 SE10      29.97F
BUTTE          CLOUDY    65  26  23 SW9G16    30.03F
MULLAN PASS    PTSUNNY   52  36  54 VRB5      30.05F
ANACONDA         N/A     66  28  24 SW10      30.00F
DEER LODGE       N/A     66  34  30 W6        30.01F
EUREKA           N/A     70  34  26 S10G16    29.90S
HAMILTON         N/A     66  39  37 N10       29.97F
LIBBY            N/A     70  36  28 SW8       29.92F
$$

MTZ008-052>055-292300-
SOUTHWEST MONTANA

CITY           SKY/WX    TMP DP  RH WIND       PRES   REMARKS
BOZEMAN        CLOUDY    70  37  29 NE5       30.00F
DILLON         CLOUDY    70  24  17 VRB5G18   30.01F
W YELLOWSTONE  PTSUNNY   63  27  25 W16G25    30.11F
ENNIS          MOSUNNY   68  28  22 VRB6G12   30.07F
$$

MTZ009-010-012-014-046-048-049-054-292300-
EAST SLOPES AND CENTRAL MONTANA

CITY           SKY/WX    TMP DP  RH WIND       PRES   REMARKS
CUT BANK         N/A     67  36  31 W16G25    29.93F
GREAT FALLS    MOSUNNY   71  33  24 W17G23    29.95S
MALMSTROM AFB  MOSUNNY   69  35  28 SW16G22   29.95F
HELENA         PTSUNNY   72  34  24 E5        29.97S
CHOTEAU          N/A     70  34  26 W14       29.96F
$$

MTZ011-013-016-021-045-047-050-051-292300-
NORTH CENTRAL MONTANA

CITY           SKY/WX    TMP DP  RH WIND       PRES   REMARKS
HAVRE          PTSUNNY   73  40  30 W13       29.91F
LEWISTOWN      SUNNY     72  37  28 VRB3      29.98F
N BAR RANCH      N/A     66  36  32 SE3       30.03S
CHINOOK          N/A     73  37  27 W10G18    29.92F
$$

MTZ017>020-022>027-061-062-292300-
NORTHEAST MONTANA

CITY           SKY/WX    TMP DP  RH WIND       PRES   REMARKS
GLASGOW        SUNNY     74  37  26 W14G25    29.93F
JORDAN           N/A     75  36  24 W8G17     29.95F
SIDNEY         SUNNY     79  36  21 W14       29.94S
WOLF POINT     SUNNY     76  38  25 W9G21     29.93F
PLENTYWOOD       N/A     72  34  25 W16G23    29.94S
POPLAR           N/A     73  37  27 W13       29.94F
$$

MTZ028>42-056>058-292300-
SOUTHCENTRAL AND SOUTHEAST MONTANA

CITY           SKY/WX    TMP DP  RH WIND       PRES   REMARKS
BAKER          CLOUDY    75  36  24 SW8       29.99F
BILLINGS       MOSUNNY   76  35  22 W5        29.96F
LIVINGSTON     SUNNY     72  35  25 VRB6      29.98F
MILES CITY     SUNNY     77  40  26 SW7       29.95F
FORSYTH          N/A     75  43  31 CALM      29.95F
$$

REGIONAL REPORTS...DAKOTAS

CITY           SKY/WX    TMP DP  RH WIND       PRES   REMARKS
WILLISTON      SUNNY     78  34  20 SW14G25   29.94F
MINOT          MOSUNNY   75  38  26 W12       29.95S
DICKINSON      MOSUNNY   76  31  19 W10G24    29.95F
BEACH            N/A     77  36  22 SW14G24   30.00F
CROSBY           N/A     70  39  32 W8        29.95F
WATFORD CITY     N/A     73  36  25 SW7       29.96F
BISMARCK       SUNNY     79  43  27 NW6       29.95F
GRAND FORKS    MOSUNNY   75  45  34 W16       29.91S
FARGO          MOSUNNY   79  44  28 NW14G20   29.93F
BUFFALO SD       N/A     74  46  36 SE13      29.92F
RAPID CITY     TSTM      67  57  70 SE7       30.00F
$$

REGIONAL REPORTS...WYOMING/IDAHO/WASHINGTON

CITY           SKY/WX    TMP DP  RH WIND       PRES   REMARKS
GILLETTE       MOSUNNY   74  39  28 CALM      30.02F
SHERIDAN       SUNNY     76  42  29 E6G18     29.98F
BUFFALO WY     SUNNY     72  43  35 SE7       30.03F
CODY           PTSUNNY   72  37  28 SE7G18    30.00F
YELLOWSTONE LA   N/A     60  23  24 W12G25    30.19F
IDAHO FALLS    MOSUNNY   74  35  24 SW14      30.03F
SALMON         CLOUDY    70  34  26 N5        29.94F
BOISE          CLOUDY    82  31  15 NW12      29.95F
SPOKANE        MOSUNNY   70  34  26 SW16G29   29.96F
$$

REGIONAL REPORTS...ALBERTA

CITY           SKY/WX    TMP DP  RH WIND       PRES   REMARKS
EDMONTON       PTSUNNY   59  45  58 N14       29.84R
CALGARY        PTSUNNY   64  32  29 NE5       29.84F
LETHBRIDGE     PTSUNNY   68  36  30 W20G28    29.87F
MEDICINE HAT   MOSUNNY   72  36  26 SW25G32   29.85F
WATERTON GATE    N/A     64  34  32 W18G28      N/A
MILK RIVER       N/A     66  34  30 W10G21      N/A
ONEFOUR          N/A     66  34  30 W12         N/A
$$

REGIONAL REPORTS...SASKATCHEWAN

CITY           SKY/WX    TMP DP  RH WIND       PRES   REMARKS
SWIFT CURRENT  MOSUNNY   68  39  34 W22G28    29.88F
REGINA         MOSUNNY   70  39  32 SW14G22   29.89F
SASKATOON      MOSUNNY   68  48  49 NW10G17   29.87F
VAL MARIE        N/A     72  34  25 SW15G22     N/A
ROCKGLEN         N/A     66  37  34 SW16G22     N/A
$$




USA.gov is the U.S. government's official web portal to all federal, state and local government web resources and services.